DW1482 Weather Reports


time (UTC)temp
C
wind
direction
speed
KPH
gust
KPH
rain 1hr
cm
rain 24hr
cm
rain mn
cm
humidity
%
barometer
mb
20260507094518 0 242 0.0 0.0 0.00 0.00 0.00 68 1011.2
20260507093020 1 242 0.0 0.0 0.00 0.00 0.00 67 1011.2
20260507091504 1 242 0.0 3.2 0.00 0.00 0.00 66 1011.2
20260507090011 1 242 0.0 4.8 0.00 0.00 0.00 65 1011.3
20260507084518 1 239 0.0 11.3 0.00 0.00 0.00 65 1011.2
20260507083028 1 230 3.2 11.3 0.00 0.00 0.00 65 1011.2
20260507081512 1 233 1.6 8.0 0.00 0.00 0.00 65 1011.3
20260507080013 1 232 3.2 8.0 0.00 0.00 0.00 65 1011.3
20260507074520 1 225 1.6 8.0 0.00 0.00 0.00 66 1011.4
20260507073024 1 191 1.6 9.7 0.00 0.00 0.00 66 1011.6
20260507071506 1 176 1.6 4.8 0.00 0.00 0.00 66 1011.8
20260507070016 1 175 0.0 4.8 0.00 0.00 0.00 65 1011.9
20260507064519 1 174 0.0 8.0 0.00 0.00 0.00 65 1011.8
20260507063024 1 162 0.0 8.0 0.00 0.00 0.00 66 1012.0
20260507061529 1 159 0.0 0.0 0.00 0.00 0.00 66 1012.0
20260507060014 1 157 0.0 0.0 0.00 0.00 0.00 63 1012.1
20260507054522 2 158 0.0 9.7 0.00 0.00 0.00 61 1012.2
20260507053010 2 155 1.6 11.3 0.00 0.00 0.00 59 1012.3
20260507051512 2 152 1.6 8.0 0.00 0.00 0.00 58 1012.5
20260507050017 2 148 1.6 8.0 0.00 0.00 0.00 56 1012.5
20260507044504 3 153 0.0 8.0 0.00 0.00 0.00 56 1012.7
20260507043009 3 161 3.2 9.7 0.00 0.00 0.00 54 1012.8
20260507041528 4 151 0.0 9.7 0.00 0.00 0.00 52 1013.1
20260507040020 5 105 0.0 4.8 0.00 0.00 0.00 50 1013.2
20260507034509 5 104 0.0 6.4 0.00 0.00 0.00 50 1013.2
20260507033012 5 121 1.6 6.4 0.00 0.00 0.00 49 1013.3
20260507031511 5 105 1.6 9.7 0.00 0.00 0.00 49 1013.3
20260507030019 6 96 1.6 4.8 0.00 0.00 0.00 48 1013.3
20260507024505 6 91 1.6 9.7 0.00 0.00 0.00 46 1013.2
20260507023009 7 121 0.0 4.8 0.00 0.00 0.00 45 1013.2
20260507021516 7 121 0.0 4.8 0.00 0.00 0.00 44 1013.1
20260507020027 7 119 0.0 8.0 0.00 0.00 0.00 43 1013.1
20260507014542 8 80 4.8 12.9 0.00 0.00 0.00 42 1013.0
20260507013026 8 98 4.8 16.1 0.00 0.00 0.00 40 1013.0
20260507011529 9 82 3.2 6.4 0.00 0.00 0.00 38 1013.0
20260507010022 9 82 3.2 8.0 0.00 0.00 0.00 36 1013.1
20260507004524 9 74 3.2 11.3 0.00 0.00 0.00 36 1013.1
20260507003012 10 74 3.2 12.9 0.00 0.00 0.00 36 1013.2
20260507001514 10 9 1.6 11.3 0.00 0.00 0.00 37 1013.3
20260507000028 10 317 3.2 8.0 0.00 0.00 0.00 37 1013.4
20260506234526 10 33 1.6 8.0 0.00 0.00 0.00 37 1013.6
20260506233012 10 32 0.0 8.0 0.00 0.00 0.00 36 1013.7
20260506231519 10 53 3.2 12.9 0.00 0.00 0.00 37 1013.8
20260506230026 10 17 6.4 16.1 0.00 0.00 0.00 36 1013.9
20260506224526 10 33 0.0 17.7 0.00 0.00 0.00 37 1013.9
20260506223013 10 82 6.4 19.3 0.00 0.00 0.00 35 1014.1
20260506221520 10 38 1.6 19.3 0.00 0.00 0.00 36 1014.1
20260506220026 10 44 4.8 16.1 0.00 0.00 0.00 36 1014.3
20260506214527 11 44 4.8 20.9 0.00 0.00 0.00 35 1014.4
20260506213026 11 48 1.6 17.7 0.00 0.00 0.00 39 1014.4
20260506211519 10 347 3.2 17.7 0.00 0.00 0.00 35 1014.7
20260506210023 10 9 8.0 19.3 0.00 0.00 0.00 36 1014.9
20260506204528 10 22 1.6 12.9 0.00 0.00 0.00 37 1015.1
20260506203035 10 360 4.8 17.7 0.00 0.00 0.00 37 1015.4
20260506201502 10 35 1.6 16.1 0.00 0.00 0.00 41 1015.5
20260506200006 10 342 1.6 22.5 0.00 0.00 0.00 40 1015.6
20260506194513 10 355 1.6 20.9 0.00 0.00 0.00 39 1015.8
20260506193019 9 28 1.6 16.1 0.00 0.00 0.00 41 1015.9
20260506191505 8 355 9.7 17.7 0.00 0.00 0.00 41 1016.0
20260506190008 8 5 3.2 20.9 0.00 0.00 0.00 39 1016.1
20260506184512 9 338 1.6 16.1 0.00 0.00 0.00 40 1016.2
20260506183017 8 11 6.4 19.3 0.00 0.00 0.00 40 1016.4
20260506181503 8 352 3.2 22.5 0.00 0.00 0.00 42 1016.6
20260506180009 8 21 4.8 16.1 0.00 0.00 0.00 43 1016.8
20260506174516 8 5 4.8 16.1 0.00 0.00 0.00 41 1017.2
20260506173021 8 13 1.6 24.1 0.00 0.00 0.00 43 1017.4
20260506171504 8 360 8.0 17.7 0.00 0.00 0.00 41 1017.5
20260506170012 7 360 4.8 19.3 0.00 0.00 0.00 43 1017.5
20260506164518 7 348 3.2 25.7 0.00 0.00 0.00 42 1017.6
20260506163022 7 26 6.4 16.1 0.00 0.00 0.00 43 1017.7
20260506161511 7 67 4.8 17.7 0.00 0.00 0.00 43 1017.8
20260506160014 7 15 4.8 17.7 0.00 0.00 0.00 44 1017.8
20260506154523 7 330 1.6 22.5 0.00 0.00 0.00 44 1017.9
20260506153025 6 5 3.2 16.1 0.00 0.00 0.00 46 1017.9
20260506151509 6 43 4.8 12.9 0.00 0.00 0.00 47 1017.9
20260506150012 5 311 0.0 11.3 0.00 0.00 0.00 54 1018.0
20260506144519 5 352 3.2 8.0 0.00 0.00 0.00 51 1018.0
20260506143024 5 5 0.0 4.8 0.00 0.00 0.00 52 1018.1
20260506141526 5 5 1.6 6.4 0.00 0.00 0.00 54 1018.2
20260506140019 5 5 0.0 4.8 0.00 0.00 0.00 57 1018.3
20260506134543 5 5 0.0 6.4 0.00 0.00 0.00 53 1018.3
20260506133025 3 5 1.6 4.8 0.00 0.00 0.00 58 1018.1
20260506131527 3 44 1.6 6.4 0.00 0.00 0.00 58 1018.1
20260506130018 2 44 0.0 4.8 0.00 0.00 0.00 59 1017.9
20260506124521 2 44 1.6 4.8 0.00 0.00 0.00 59 1017.9
20260506123026 2 44 0.0 3.2 0.00 0.00 0.00 60 1017.6
20260506121527 1 44 0.0 3.2 0.00 0.00 0.00 61 1017.5
20260506120019 1 44 0.0 3.2 0.00 0.00 0.00 62 1017.2
20260506114533 1 44 1.6 4.8 0.00 0.00 0.00 63 1017.2
20260506113033 1 44 0.0 4.8 0.00 0.00 0.00 64 1017.1
20260506111511 1 44 0.0 1.6 0.00 0.00 0.00 65 1017.0
20260506110009 1 44 0.0 4.8 0.00 0.00 0.00 65 1017.0
20260506104503 1 44 0.0 3.2 0.00 0.00 0.00 66 1016.9
20260506103019 1 44 0.0 0.0 0.00 0.00 0.00 65 1016.8
20260506101511 1 44 0.0 0.0 0.00 0.00 0.00 65 1016.8
20260506100004 1 44 0.0 0.0 0.00 0.00 0.00 65 1016.8